Hurlburt Field, FL

3:09 AM CST on February 20, 2017 (GMT -0600)
Hurlburt

Weather History for KHRT - October, 2014

Change the Weather History Date:

Monday, October 13, 2014

  Actual Average Record
Temperature  
Mean Temperature 80 °F -  
Max Temperature 84 °F 77 °F 86 °F (1997)
Min Temperature 75 °F 59 °F 47 °F (2006)
Cooling Degree Days 14    
Growing Degree Days 30 (Base 50)    
Moisture  
Dew Point 71 °F    
Average Humidity 73    
Maximum Humidity 84    
Minimum Humidity 61    
Precipitation  
Precipitation 0.31 in - - ()
Sea Level Pressure  
Sea Level Pressure 29.92 in    
Wind  
Wind Speed 17 mph (SSE)    
Max Wind Speed 26 mph    
Max Gust Speed 33 mph    
Visibility 9 miles    
Events Rain , Thunderstorm    
Averages and records for this station are not official NWS values.
T = Trace of Precipitation, MM = Missing Value Source: NWS Daily Summary

Daily Weather History Graph

Daily Weather History Graph

Search for Another Location

Airport or City:

Trip Planner

Search our weather history database for the weather conditions in past years. The results will help you decide how hot, cold, wet, or windy it might be!

Date:

Astronomy

Oct. 13, 2014 Rise Set
Actual Time 6:47 AM CDT 6:17 PM CDT
Civil Twilight 6:23 AM CDT 6:41 PM CDT
Nautical Twilight 5:55 AM CDT 7:09 PM CDT
Astronomical Twilight 5:27 AM CDT 7:37 PM CDT
Moon 10:41 PM CDT (10/13) 11:48 AM CDT (10/13)
Length of Visible Light 12h 18m
Length of Day
11h 30m
Waning Gibbous, 70% of the Moon is Illuminated
Oct 13
Waning Gibbous
Oct 15
Last Quarter
Oct 23
New
Oct 30
First Quarter
Nov 6
Full

Hourly Weather History & Observations

Time (CDT) Temp. Heat Index Dew Point Humidity Pressure Visibility Wind Dir Wind Speed Gust Speed Precip Events Conditions
12:58 AM 79.5 °F - 69.1 °F 70% 30.01 in 10.0 mi SSE 12.7 mph - N/A   Clear
1:58 AM 79.3 °F - 68.2 °F 69% 30.01 in 10.0 mi SSE 13.8 mph - N/A   Clear
2:58 AM 78.6 °F - 69.4 °F 73% 30.00 in 10.0 mi SSE 12.7 mph - N/A   Scattered Clouds
3:58 AM 78.6 °F - 67.3 °F 68% 29.99 in 10.0 mi SSE 16.1 mph - N/A   Partly Cloudy
4:28 AM 78.8 °F - 68.0 °F 69% 29.97 in 10.0 mi SSE 16.1 mph - N/A   Mostly Cloudy
4:43 AM 78.8 °F - 68.0 °F 69% 29.96 in 10.0 mi SSE 15.0 mph - N/A   Scattered Clouds
4:58 AM 78.8 °F - 66.9 °F 67% 29.97 in 10.0 mi SSE 16.1 mph - N/A   Partly Cloudy
5:58 AM 79.2 °F - 67.1 °F 66% 29.97 in 10.0 mi SSE 15.0 mph - N/A   Clear
6:23 AM 78.8 °F - 68.0 °F 69% 29.96 in 10.0 mi SSE 16.1 mph - N/A   Scattered Clouds
6:58 AM 79.2 °F - 68.7 °F 70% 29.97 in 10.0 mi SSE 16.1 mph - N/A   Partly Cloudy
7:08 AM 78.8 °F - 69.8 °F 74% 29.97 in 10.0 mi SSE 16.1 mph 21.9 mph N/A   Mostly Cloudy
7:23 AM 78.8 °F - 69.8 °F 74% 29.97 in 10.0 mi SSE 16.1 mph - N/A   Scattered Clouds
7:28 AM 80.6 °F 83.9 °F 69.8 °F 70% 29.97 in 10.0 mi SSE 19.6 mph 24.2 mph N/A   Mostly Cloudy
7:43 AM 80.6 °F 83.9 °F 69.8 °F 70% 29.98 in 10.0 mi SSE 18.4 mph 26.5 mph N/A   Scattered Clouds
7:58 AM 81.0 °F 84.2 °F 69.6 °F 68% 29.99 in 10.0 mi SSE 19.6 mph 26.5 mph N/A   Scattered Clouds
8:08 AM 80.6 °F 83.9 °F 69.8 °F 70% 29.97 in 10.0 mi SSE 17.3 mph - N/A   Mostly Cloudy
8:13 AM 80.6 °F 83.9 °F 69.8 °F 70% 29.97 in 10.0 mi SSE 18.4 mph - N/A   Mostly Cloudy
8:18 AM 82.4 °F 86.3 °F 69.8 °F 66% 29.98 in 10.0 mi SSE 20.7 mph 26.5 mph N/A   Mostly Cloudy
8:43 AM 82.4 °F 86.3 °F 69.8 °F 66% 29.98 in 10.0 mi SSE 17.3 mph 26.5 mph N/A   Mostly Cloudy
8:58 AM 83.3 °F 87.1 °F 69.6 °F 63% 30.00 in 10.0 mi SSE 19.6 mph 25.3 mph N/A   Scattered Clouds
9:33 AM 82.4 °F 86.3 °F 69.8 °F 66% 29.99 in 10.0 mi SSE 21.9 mph 25.3 mph N/A   Mostly Cloudy
9:53 AM 84.2 °F 89.6 °F 71.6 °F 66% 29.98 in 10.0 mi SSE 17.3 mph - N/A   Mostly Cloudy
9:58 AM 83.7 °F 88.6 °F 71.4 °F 66% 29.99 in 10.0 mi SSE 15.0 mph 21.9 mph N/A   Mostly Cloudy
10:38 AM 84.2 °F 89.6 °F 71.6 °F 66% 29.99 in 10.0 mi SSE 23.0 mph 28.8 mph N/A   Mostly Cloudy
10:41 AM 82.4 °F 87.2 °F 71.6 °F 70% 29.99 in 10.0 mi SSE 26.5 mph - N/A Rain Light Rain
10:50 AM 82.4 °F 87.2 °F 71.6 °F 70% 29.98 in 10.0 mi SSE 20.7 mph 28.8 mph N/A   Mostly Cloudy
10:58 AM 83.5 °F 87.7 °F 70.3 °F 64% 29.99 in 10.0 mi SSE 19.6 mph 27.6 mph 0.00 in   Scattered Clouds
11:58 AM 83.8 °F 88.9 °F 71.2 °F 66% 29.99 in 10.0 mi South 19.6 mph 26.5 mph N/A   Mostly Cloudy
12:58 PM 83.7 °F 87.2 °F 68.7 °F 61% 29.98 in 10.0 mi SSE 17.3 mph 27.6 mph N/A   Scattered Clouds
1:58 PM 84.9 °F 89.4 °F 70.3 °F 61% 29.95 in 10.0 mi SSE 18.4 mph - N/A   Scattered Clouds
2:03 PM 84.2 °F 88.4 °F 69.8 °F 62% 29.93 in 10.0 mi SSE 16.1 mph - N/A   Mostly Cloudy
2:13 PM 82.4 °F 87.2 °F 71.6 °F 70% 29.92 in 10.0 mi SSE 18.4 mph - N/A   Mostly Cloudy
2:23 PM 82.4 °F 87.2 °F 71.6 °F 70% 29.92 in 10.0 mi SSE 17.3 mph 25.3 mph N/A   Mostly Cloudy
2:33 PM 84.2 °F 89.6 °F 71.6 °F 66% 29.91 in 10.0 mi SSE 18.4 mph - N/A   Mostly Cloudy
2:58 PM 84.4 °F 89.7 °F 71.2 °F 65% 29.91 in 10.0 mi SSE 20.7 mph 24.2 mph N/A   Partly Cloudy
3:58 PM 83.8 °F 88.9 °F 71.2 °F 66% 29.89 in 10.0 mi SSE 19.6 mph 25.3 mph N/A   Mostly Cloudy
4:28 PM 80.6 °F 84.6 °F 71.6 °F 74% 29.89 in 10.0 mi SSE 25.3 mph 32.2 mph N/A   Mostly Cloudy
4:38 PM 80.6 °F 83.9 °F 69.8 °F 70% 29.89 in 10.0 mi SSE 21.9 mph 32.2 mph N/A   Overcast
4:58 PM 79.3 °F - 70.3 °F 74% 29.90 in 10.0 mi SSE 18.4 mph - N/A   Scattered Clouds
5:58 PM 79.0 °F - 68.7 °F 71% 29.89 in 10.0 mi SSE 20.7 mph 26.5 mph N/A   Mostly Cloudy
6:35 PM 78.8 °F - 69.8 °F 74% 29.87 in 10.0 mi SSE 23.0 mph 27.6 mph N/A   Light Drizzle
6:40 PM 78.8 °F - 71.6 °F 78% 29.87 in 10.0 mi SSE 19.6 mph - N/A Rain , Thunderstorm Light Thunderstorms and Rain
6:45 PM 78.8 °F - 71.6 °F 78% 29.87 in 6.0 mi SSE 21.9 mph 27.6 mph N/A Rain , Thunderstorm Light Thunderstorms and Rain
6:50 PM 77.0 °F - 68.0 °F 74% 29.87 in 2.5 mi SE 12.7 mph 29.9 mph N/A Rain , Thunderstorm Heavy Thunderstorms and Rain
6:55 PM 75.2 °F - 68.0 °F 78% 29.87 in 2.5 mi ESE 8.1 mph 29.9 mph N/A Rain Rain
6:58 PM 75.2 °F - 68.0 °F 78% 29.87 in 4.0 mi ESE 6.9 mph 29.9 mph 0.21 in Rain Light Rain
7:03 PM 75.2 °F - 69.8 °F 83% 29.87 in 5.0 mi ESE 12.7 mph 18.4 mph N/A Rain Light Rain
7:08 PM 77.0 °F - 71.6 °F 83% 29.87 in 2.5 mi SE 16.1 mph 18.4 mph N/A Rain Light Rain
7:13 PM 77.0 °F - 71.6 °F 83% 29.86 in 3.0 mi ESE 15.0 mph - N/A Rain Light Rain
7:18 PM 77.0 °F - 71.6 °F 83% 29.87 in 10.0 mi ESE 11.5 mph - N/A Rain Light Rain
7:22 PM 77.0 °F - 71.6 °F 83% 29.87 in 10.0 mi ESE 9.2 mph - N/A Thunderstorm Mostly Cloudy
7:58 PM 78.1 °F - 73.0 °F 84% 29.89 in 10.0 mi SSE 16.1 mph 21.9 mph 0.09 in   Overcast
8:08 PM 80.6 °F 86.2 °F 75.2 °F 84% 29.88 in 10.0 mi South 16.1 mph - N/A   Mostly Cloudy
8:23 PM 80.6 °F 86.2 °F 75.2 °F 84% 29.87 in 10.0 mi South 19.6 mph 27.6 mph N/A   Mostly Cloudy
8:28 PM 80.6 °F 86.2 °F 75.2 °F 84% 29.87 in 10.0 mi South 20.7 mph 29.9 mph N/A   Mostly Cloudy
8:35 PM 80.6 °F 86.2 °F 75.2 °F 84% 29.87 in 10.0 mi SSE 18.4 mph - N/A   Scattered Clouds
8:43 PM 80.6 °F 86.2 °F 75.2 °F 84% 29.87 in 10.0 mi South 21.9 mph 26.5 mph N/A   Mostly Cloudy
8:58 PM 80.2 °F 84.9 °F 73.8 °F 81% 29.88 in 10.0 mi South 20.7 mph 26.5 mph N/A   Scattered Clouds
9:58 PM 80.2 °F 84.6 °F 73.2 °F 79% 29.87 in 10.0 mi South 19.6 mph 32.2 mph N/A   Partly Cloudy
10:13 PM 80.6 °F 85.4 °F 73.4 °F 79% 29.86 in 10.0 mi South 21.9 mph 28.8 mph N/A   Mostly Cloudy
10:23 PM 80.6 °F 85.4 °F 73.4 °F 79% 29.85 in 10.0 mi South 20.7 mph 28.8 mph N/A   Mostly Cloudy
10:43 PM 80.6 °F 85.4 °F 73.4 °F 79% 29.85 in 10.0 mi South 24.2 mph 29.9 mph N/A   Mostly Cloudy
10:58 PM 80.8 °F 85.9 °F 74.1 °F 80% 29.86 in 10.0 mi South 25.3 mph 28.8 mph 0.01 in Thunderstorm Scattered Clouds
11:07 PM 80.6 °F 85.4 °F 73.4 °F 79% 29.86 in 10.0 mi South 25.3 mph 31.1 mph N/A Thunderstorm Thunderstorm
11:32 PM 80.6 °F 86.2 °F 75.2 °F 84% 29.84 in 10.0 mi South 23.0 mph - N/A Rain , Thunderstorm Light Thunderstorms and Rain
11:49 PM 80.6 °F 85.4 °F 73.4 °F 79% 29.83 in 10.0 mi South 21.9 mph 32.2 mph N/A Thunderstorm Thunderstorm
11:58 PM 80.8 °F 85.9 °F 74.1 °F 80% 29.84 in 10.0 mi South 25.3 mph 33.4 mph 0.00 in Thunderstorm Thunderstorm